Location: La Batlloria
(41.7175°N, 2.5481°E)
Time: 08:20:51
(UTC+00:00)

Daily predictions for brighter satellites

Satellite Brightness Start Highest point End
(mag) Time Altitude Azimuth Time Altitude Azimuth Time Altitude Azimuth
CZ-4B R/B 1.5 17:12:05 10° NNE 17:15:10 47° E 17:18:10 10° S
Cosmos 1825 Rocket 3.6 17:11:20 10° N 17:15:48 86° E 17:20:11 10° S
Helios 1A Rocket 4.3 17:15:07 10° ESE 17:17:57 18° ENE 17:20:47 10° NNE
ERS-2 2.1 17:15:24 10° NNE 17:19:02 65° ESE 17:22:37 10° S
YAOGAN 1 4.2 17:17:59 10° E 17:20:24 15° ENE 17:22:49 10° NNE
BREEZE-M TANK 3.7 17:09:53 10° W 17:21:13 64° N 17:24:55 10° ENE
Atlas Centaur 2 4.2 17:14:23 10° SW 17:21:24 34° SSE 17:28:47 10° ESE
Meteor 2-21 Rocket 4.4 17:17:24 10° N 17:23:36 78° E 17:29:42 10° SSE
NOAA 11 4.2 17:19:42 10° SSE 17:25:02 58° ENE 17:30:21 10° N
CZ-2D R/B 4.4 17:22:55 10° ESE 17:25:52 22° ENE 17:28:49 10° NNE
Cosmos 44 4.1 17:21:37 10° SW 17:25:57 48° NW 17:30:35 10° NNE
Okean O Rocket 1.8 17:22:35 10° S 17:26:56 77° WSW 17:31:19 10° NNW
Cosmos 2228 3.5 17:23:05 10° SSW 17:27:17 66° W 17:31:34 10° N
Cosmos 1340 3.1 17:24:28 10° N 17:28:02 39° ENE 17:31:35 10° SSE
Cosmos 1726 Rocket 3.6 17:23:47 10° S 17:28:07 89° WNW 17:32:32 10° N
CZ-4 R/B 2.7 17:26:05 10° ESE 17:28:44 18° ENE 17:31:23 10° NNE
SAR-Lupe-1 4.5 17:25:40 10° NNE 17:29:02 39° E 17:32:22 10° S
Aureole 3 2.6 17:30:53 10° S 17:33:58 58° E 17:36:54 10° NNE
SL-4 R/B 3.5 17:31:30 10° NW 17:34:05 18° N 17:36:33 11° NE
CORIOLIS 4.3 17:28:46 10° SSE 17:34:06 82° WSW 17:39:30 10° NNW
Cosmos 1980 Rocket 3.5 17:31:50 10° SE 17:35:40 19° E 17:39:22 10° ENE
Cosmos 1346 Rocket 3.8 17:32:28 10° NNE 17:35:48 25° ENE 17:39:07 10° SE
Cosmos 2058 3.9 17:33:14 10° NNE 17:36:38 24° ENE 17:40:00 10° SE
Cosmos 1992 Rocket 4.5 17:32:42 10° SSE 17:37:27 37° ESE 17:42:14 10° NE
Cosmos 2297 Rocket 2.2 17:33:55 10° NNW 17:39:34 66° ENE 17:45:11 10° SSE
Timation 2 Rocket 4.3 17:34:36 10° NNW 17:41:17 80° WSW 17:48:07 10° SSE
In-Cosmos 22 Rocket 4.2 17:36:12 10° N 17:41:31 58° ENE 17:46:55 10° SSE
PSLV R/B 4.4 17:37:41 10° NNE 17:41:37 39° E 17:45:29 10° S
CZ-2C R/B 4.0 17:37:24 10° SE 17:42:22 31° ENE 17:47:13 10° N
Cosmos 1315 Rocket 3.6 17:41:05 10° SSE 17:44:29 28° E 17:47:56 10° NNE
Cosmos 1553 Rocket 4.0 17:42:02 10° S 17:48:18 64° E 17:54:30 10° NNE
Cosmos 220 Rocket 4.2 17:45:49 10° S 17:50:01 52° ESE 17:54:19 10° NNE
Meteor 2-10 Rocket 3.6 17:49:04 10° S 17:54:12 51° E 17:59:10 10° NNE
BREEZE-M R/B 4.3 17:50:58 10° NW 17:54:39 36° NNE 17:59:00 18° ENE
USA 305 3.7 17:52:05 10° NW 17:56:06 36° NNE 17:58:11 22° E
Cosmos 1455 2.6 17:52:50 10° SSE 17:56:19 37° E 17:59:51 10° NNE
SKYMED 2 3.5 17:53:21 10° NNE 17:57:42 78° ESE 18:02:02 10° S
SeaSat 1 4.0 18:00:38 16° NE 18:00:59 16° NE 18:03:54 10° N
USA 306 3.5 17:58:35 10° NW 18:02:37 39° NNE 18:04:25 26° E
H-2A R/B 2.9 17:58:07 10° SE 18:02:50 31° ENE 18:07:36 10° N
Okean-O 2.7 17:59:52 10° SSE 18:04:09 52° ENE 18:08:28 10° N
Cosmos 2278 4.1 18:03:42 10° S 18:08:54 38° ESE 18:12:45 17° NE
NOSS 3-3 (A) 3.8 18:04:00 10° SSW 18:09:43 81° ESE 18:16:09 10° NE
NOSS 3-3 (C) 3.8 18:04:07 10° SSW 18:09:50 80° ESE 18:16:14 10° NE
Aureole 3 Rocket 3.9 18:06:02 10° SSW 18:09:57 56° WNW 18:15:23 10° N
MOS 1 Rocket 3.9 18:05:48 10° NNE 18:10:14 36° E 18:14:53 10° SSE
SL-08 R/B 4.4 18:04:36 10° N 18:10:47 89° ENE 18:16:53 10° S
Cosmos 2219 3.7 18:07:26 10° NNW 18:13:08 63° WSW 18:18:47 10° S
Cosmos 1745 Rocket 3.9 18:11:00 10° N 18:17:19 72° E 18:23:39 10° SSE
Cosmos 44 Rocket 3.3 18:12:42 10° SSW 18:17:20 58° ESE 18:19:58 26° NE
Lacrosse 5 3.8 18:15:42 10° NNW 18:18:38 15° N 18:20:11 13° NNE
ARGOS 3.8 18:17:21 28° E 18:18:42 32° ENE 18:23:28 10° N
Cosmos 1408 2.4 18:16:38 10° N 18:20:18 75° E 18:23:59 10° SSE
Cosmos 2082 3.7 18:14:44 10° NNW 18:20:27 65° ENE 18:25:52 11° SE
ATLAS 2AS CENTAUR R/B 3.7 18:17:47 10° NNW 18:24:16 30° NE 18:26:17 26° ENE
Cosmos 968 Rocket 3.7 18:20:34 10° NNW 18:25:45 72° WSW 18:30:53 10° S
Cosmos 1386 Rocket 4.4 18:19:40 10° N 18:26:07 80° E 18:32:25 10° S
Cosmos 1689 Rocket 3.7 18:23:38 10° N 18:26:19 34° WNW 18:28:57 10° SW
Cosmos 2369 3.7 18:27:33 10° SSW 18:33:16 87° WNW 18:39:01 10° NNE
Cosmos 1076 Rocket 3.3 18:30:28 10° N 18:34:44 81° E 18:38:59 10° S
Cosmos 1939 Rocket 4.4 18:31:32 10° SSW 18:35:14 37° W 18:38:54 10° NNW
Cosmos 1892 4.0 18:33:14 10° NNW 18:36:54 41° W 18:40:33 10° SSW
CSL-04 Rocket 3.6 18:34:28 10° SSE 18:39:57 65° ENE 18:45:25 10° N
Cosmos 2227 Rocket 3.2 18:38:37 10° NW 18:43:59 45° WSW 18:49:20 10° S
COSMO-SKYMED 1 4.4 18:41:46 10° N 18:45:37 32° WNW 18:49:27 10° SW
Cosmos 2263 Rocket 3.2 18:41:14 10° N 18:45:07 28° NE 18:45:07 28° NE
USA 307 2.8 18:42:13 10° NW 18:46:28 75° NNE 18:46:28 75° NNE
Cosmos 1709 Rocket 3.9 18:40:27 10° N 18:46:51 70° E 18:53:11 10° SSE
CZ-4C R/B 4.0 18:43:27 10° NNW 18:49:07 25° NE 18:49:38 25° NE
OAO 2 Rocket 4.1 18:44:51 10° WSW 18:49:27 38° S 18:50:07 36° SSE
USA 308 2.8 18:47:11 10° NW 18:51:15 77° NNW 18:51:15 77° NNW
Cosmos 1825 2.4 18:48:43 10° NNW 18:52:23 67° W 18:52:23 67° W
Helios 1A Rocket 4.4 18:48:59 10° SSW 18:52:49 37° W 18:56:40 10° NNW
Cosmos 1697 Rocket 3.5 18:50:07 10° SW 18:55:32 49° WNW 19:01:01 10° NNE
YAOGAN 1 3.2 18:51:50 10° S 18:56:03 53° W 19:00:18 10° NNW
Cosmos 883 Rocket 4.4 18:52:03 10° S 18:58:13 84° W 19:04:22 10° N
GPS 2-04 Rocket1 4.2 18:55:51 10° WSW 18:58:37 29° SSW 18:58:37 29° SSW
CZ-4 R/B 3.0 19:00:01 10° SSW 19:03:32 33° W 19:07:03 10° NNW
Milstar 3 4.1 19:02:35 10° WSW 19:08:03 26° S 19:09:47 23° SSE
Cosmos 2315 Rocket 3.9 19:02:49 10° S 19:09:01 85° W 19:15:16 10° N
Atlas Centaur 2 3.9 19:02:53 10° WSW 19:10:25 37° S 19:12:40 32° SSE
SL-4 R/B 4.0 19:10:43 10° NW 19:12:08 21° NW 19:12:08 21° NW
Cosmos 1980 Rocket 2.6 19:13:34 10° SW 19:19:07 60° WNW 19:21:13 37° N
SeaSat 1 4.0 19:40:26 29° NNW 19:40:26 29° NNW 19:42:50 10° NNW
H-2A R/B 3.5 19:37:12 10° SSW 19:42:07 36° W 19:47:07 10° NNW
NOSS 3-4 (A) 4.0 19:46:47 10° NW 19:53:08 73° WNW 19:53:08 73° WNW
NOSS 3-4 (C) 4.0 19:46:53 10° NW 19:53:11 72° NW 19:53:11 72° NW
USA 215 4.3 19:57:31 36° N 19:57:31 36° N 20:01:51 10° NW
Lacrosse 5 4.3 19:58:21 10° NNW 19:59:23 15° NNW 19:59:23 15° NNW
ATLAS 2AS CENTAUR R/B 3.5 20:08:36 10° NW 20:13:44 47° NW 20:13:44 47° NW
Cosmos 2263 Rocket 4.4 20:24:57 10° NW 20:26:50 20° NW 20:26:50 20° NW
CZ-4C R/B 4.2 20:31:18 10° NNW 20:34:49 33° NNW 20:34:49 33° NNW
